Time,TemperatureF,DewpointF,PressureIn,WindDirection,WindDirectionDegrees,WindSpeedMPH,WindSpeedGustMPH,Humidity,HourlyPrecipIn,Conditions,Clouds,dailyrainin,SoftwareType,DateUTC
2013-07-02 00:00:00,64.9,52.4,30.08,ENE,72,1.0,5.0,64,0.00,CLR,FEW,0.00,WeatherDisplay:10.37,2013-07-01 22:00:00,
2013-07-02 00:30:00,64.5,50.7,30.08,ENE,71,0.0,5.0,61,0.00,CLR,FEW,0.00,WeatherDisplay:10.37,2013-07-01 22:30:00,
2013-07-02 01:00:00,64.3,50.6,30.07,ENE,71,0.0,4.0,61,0.00,CLR,FEW,0.00,WeatherDisplay:10.37,2013-07-01 23:00:00,
2013-07-02 01:30:00,64.2,50.9,30.06,ENE,71,0.0,3.0,62,0.00,CLR,FEW,0.00,WeatherDisplay:10.37,2013-07-01 23:30:00,
2013-07-02 02:00:00,63.8,51.8,30.06,ENE,71,1.0,4.0,65,0.00,CLR,FEW,0.00,WeatherDisplay:10.37,2013-07-02 00:00:00,
2013-07-02 02:30:00,64.1,52.5,30.06,ENE,66,0.0,7.0,66,0.00,CLR,FEW,0.00,WeatherDisplay:10.37,2013-07-02 00:30:00,
2013-07-02 03:00:00,63.6,52.4,30.05,ENE,66,0.0,3.0,67,0.00,CLR,FEW,0.00,WeatherDisplay:10.37,2013-07-02 01:00:00,
2013-07-02 03:30:00,63.4,53.0,30.05,ENE,63,0.0,7.0,69,0.00,CLR,FEW,0.00,WeatherDisplay:10.37,2013-07-02 01:30:00,
2013-07-02 04:00:00,63.7,53.3,30.05,ENE,59,0.0,6.0,69,0.00,CLR,FEW,0.00,WeatherDisplay:10.37,2013-07-02 02:00:00,
2013-07-02 04:30:00,63.4,53.0,30.05,ENE,61,0.0,4.0,69,0.00,CLR,FEW,0.00,WeatherDisplay:10.37,2013-07-02 02:30:00,
2013-07-02 05:00:00,63.2,52.9,30.05,ENE,61,0.0,4.0,69,0.00,CLR,FEW,0.00,WeatherDisplay:10.37,2013-07-02 03:00:00,
2013-07-02 05:30:00,62.9,53.0,30.05,ENE,61,0.0,5.0,70,0.00,CLR,FEW,0.00,WeatherDisplay:10.37,2013-07-02 03:30:00,
2013-07-02 06:00:00,63.4,53.0,30.05,ENE,60,1.0,4.0,69,0.00,CLR,FEW,0.00,WeatherDisplay:10.37,2013-07-02 04:00:00,
2013-07-02 06:30:00,63.3,52.6,30.06,NE,53,0.0,6.0,68,0.00,CLR,FEW,0.00,WeatherDisplay:10.37,2013-07-02 04:30:00,
2013-07-02 07:00:00,63.3,53.4,30.06,NE,53,0.0,5.0,70,0.00,CLR,FEW,0.00,WeatherDisplay:10.37,2013-07-02 05:00:00,
2013-07-02 07:30:00,66.1,55.6,30.06,NE,53,0.0,5.0,69,0.00,CLR,FEW,0.00,WeatherDisplay:10.37,2013-07-02 05:30:00,
2013-07-02 08:00:00,69.3,56.1,30.07,NE,53,0.0,4.0,63,0.00,CLR,FEW,0.00,WeatherDisplay:10.37,2013-07-02 06:00:00,
2013-07-02 08:30:00,70.9,57.3,30.07,NE,53,0.0,1.0,62,0.00,CLR,FEW,0.00,WeatherDisplay:10.37,2013-07-02 06:30:00,
2013-07-02 09:00:00,73.8,58.5,30.07,NE,53,0.0,1.0,59,0.00,CLR,FEW,0.00,WeatherDisplay:10.37,2013-07-02 07:00:00,
2013-07-02 09:30:00,74.7,57.5,30.07,NE,53,1.0,4.0,55,0.00,CLR,FEW,0.00,WeatherDisplay:10.37,2013-07-02 07:30:00,
2013-07-02 10:00:00,75.7,58.4,30.07,NE,43,2.0,5.0,55,0.00,CLR,FEW,0.00,WeatherDisplay:10.37,2013-07-02 08:00:00,
2013-07-02 10:30:00,76.6,59.7,30.07,NW,306,0.0,4.0,56,0.00,CLR,FEW,0.00,WeatherDisplay:10.37,2013-07-02 08:30:00,
2013-07-02 11:00:00,77.9,56.0,30.07,NW,310,1.0,4.0,47,0.00,CLR,FEW,0.00,WeatherDisplay:10.37,2013-07-02 09:00:00,
2013-07-02 11:30:00,77.3,57.2,30.07,NW,310,3.0,6.0,50,0.00,CLR,FEW,0.00,WeatherDisplay:10.37,2013-07-02 09:30:00,
2013-07-02 12:00:00,79.0,58.8,30.07,West,280,1.0,5.0,50,0.00,CLR,FEW,0.00,WeatherDisplay:10.37,2013-07-02 10:00:00,
2013-07-02 12:30:00,80.1,58.6,30.06,NW,304,0.0,6.0,48,0.00,CLR,FEW,0.00,WeatherDisplay:10.37,2013-07-02 10:30:00,
2013-07-02 13:00:00,80.5,57.8,30.06,NW,315,1.0,6.0,46,0.00,CLR,FEW,0.00,WeatherDisplay:10.37,2013-07-02 11:00:00,
2013-07-02 13:30:00,81.3,59.1,30.05,WSW,256,2.0,6.0,47,0.00,CLR,FEW,0.00,WeatherDisplay:10.37,2013-07-02 11:30:00,
2013-07-02 14:00:00,83.8,59.5,30.04,WNW,294,0.0,6.0,44,0.00,CLR,FEW,0.00,WeatherDisplay:10.37,2013-07-02 12:00:00,
2013-07-02 14:30:00,83.4,59.8,30.04,NW,312,2.0,9.0,45,0.00,CLR,FEW,0.00,WeatherDisplay:10.37,2013-07-02 12:30:00,
2013-07-02 15:00:00,83.4,59.2,30.03,NW,311,1.0,9.0,44,0.00,CLR,FEW,0.00,WeatherDisplay:10.37,2013-07-02 13:00:00,
2013-07-02 15:30:00,82.0,60.9,30.03,WNW,299,3.0,8.0,49,0.00,CLR,FEW,0.00,WeatherDisplay:10.37,2013-07-02 13:30:00,
2013-07-02 16:00:00,79.3,60.7,30.03,WNW,287,1.0,7.0,53,0.00,CLR,FEW,0.00,WeatherDisplay:10.37,2013-07-02 14:00:00,
2013-07-02 16:30:00,81.5,60.5,30.03,South,185,2.0,7.0,49,0.00,CLR,FEW,0.00,WeatherDisplay:10.37,2013-07-02 14:30:00,
2013-07-02 17:00:00,81.7,60.1,30.03,West,272,1.0,7.0,48,0.00,CLR,FEW,0.00,WeatherDisplay:10.37,2013-07-02 15:00:00,
2013-07-02 17:30:00,81.5,59.9,30.03,SSW,204,2.0,7.0,48,0.00,CLR,FEW,0.00,WeatherDisplay:10.37,2013-07-02 15:30:00,
2013-07-02 18:00:00,81.0,60.0,30.02,WSW,252,2.0,5.0,49,0.00,CLR,FEW,0.00,WeatherDisplay:10.37,2013-07-02 16:00:00,
2013-07-02 18:30:00,79.2,59.5,30.02,West,280,0.0,5.0,51,0.00,CLR,FEW,0.00,WeatherDisplay:10.37,2013-07-02 16:30:00,
2013-07-02 19:00:00,77.4,59.0,30.03,South,188,0.0,3.0,53,0.00,CLR,FEW,0.00,WeatherDisplay:10.37,2013-07-02 17:00:00,
2013-07-02 19:30:00,76.2,58.8,30.03,South,191,0.0,3.0,55,0.00,CLR,FEW,0.00,WeatherDisplay:10.37,2013-07-02 17:30:00,
2013-07-02 20:00:00,75.1,59.4,30.03,SSW,192,0.0,1.0,58,0.00,CLR,FEW,0.00,WeatherDisplay:10.37,2013-07-02 18:00:00,
2013-07-02 20:30:00,72.0,58.7,30.03,South,169,0.0,2.0,63,0.00,CLR,FEW,0.00,WeatherDisplay:10.37,2013-07-02 18:30:00,
2013-07-02 21:00:00,69.2,57.4,30.03,East,95,1.0,5.0,66,0.00,CLR,FEW,0.00,WeatherDisplay:10.37,2013-07-02 19:00:00,
2013-07-02 21:30:00,67.9,56.1,30.04,ENE,67,1.0,7.0,66,0.00,CLR,FEW,0.00,WeatherDisplay:10.37,2013-07-02 19:30:00,
2013-07-02 22:00:00,67.4,55.2,30.05,ENE,64,0.0,4.0,65,0.00,CLR,FEW,0.00,WeatherDisplay:10.37,2013-07-02 20:00:00,
2013-07-02 22:30:00,66.4,54.3,30.05,ENE,64,0.0,3.0,65,0.00,CLR,FEW,0.00,WeatherDisplay:10.37,2013-07-02 20:30:00,
2013-07-02 23:00:00,66.1,53.6,30.05,ENE,64,1.0,3.0,64,0.00,CLR,FEW,0.00,WeatherDisplay:10.37,2013-07-02 21:00:00,
2013-07-02 23:30:00,66.6,54.9,30.05,ENE,64,0.0,4.0,66,0.00,CLR,FEW,0.00,WeatherDisplay:10.37,2013-07-02 21:30:00,